This is the latest recevied weather packets stored in our database for station/object VK5GR-12. If no packets are shown the sender has not sent any weather packets the latest 10 day(s).
| Time | Temp. | Humidity | Pressure | Rain* | Wind** | Luminosity | Snow |
|---|---|---|---|---|---|---|---|
| 1787927073 | 12.78° C | 71% | 1031.6 hPa | 0 mm | - | 0 W/m² | - |
| 1787926171 | 13.33° C | 70% | 1031.5 hPa | 0 mm | - | 0 W/m² | - |
| 1787925272 | 13.33° C | 70% | 1031.4 hPa | 0 mm | - | 0 W/m² | - |
| 1787924366 | 12.78° C | 71% | 1031.5 hPa | 0 mm | - | 0 W/m² | - |
| 1787923462 | 12.78° C | 72% | 1031.9 hPa | 0 mm | - | 0 W/m² | - |
| 1787922558 | 12.22° C | 73% | 1031.6 hPa | 0 mm | - | 0 W/m² | - |
| 1787921656 | 12.78° C | 72% | 1031.7 hPa | 0 mm | - | 0 W/m² | - |
| 1787920752 | 12.78° C | 72% | 1032 hPa | 0 mm | - | 0 W/m² | - |
| 1787919849 | 13.33° C | 71% | 1031.7 hPa | 0 mm | - | 0 W/m² | - |
| 1787918944 | 13.33° C | 71% | 1031.6 hPa | 0 mm | - | 0 W/m² | - |
| 1787918044 | 13.33° C | 74% | 1031.7 hPa | 0 mm | - | 0 W/m² | - |
| 1787917142 | 13.33° C | 76% | 1031.6 hPa | 0 mm | - | 0 W/m² | - |
| 1787916237 | 13.89° C | 73% | 1031.6 hPa | 0 mm | - | 0 W/m² | - |
| 1787915333 | 14.44° C | 69% | 1031.4 hPa | 0 mm | - | 0 W/m² | - |
| 1787914428 | 14.44° C | 70% | 1031 hPa | 0 mm | - | 0 W/m² | - |
| 1787913523 | 14.44° C | 73% | 1031 hPa | 0 mm | - | 0 W/m² | - |
| 1787912622 | 15° C | 71% | 1031 hPa | 0 mm | - | 0 W/m² | - |
| 1787911716 | 15.56° C | 69% | 1030.8 hPa | 0 mm | - | 0 W/m² | - |
| 1787910812 | 15.56° C | 71% | 1030.6 hPa | 0 mm | - | 0 W/m² | - |
| 1787909906 | 15° C | 74% | 1030.7 hPa | 0 mm | - | 0 W/m² | - |
| 1787909001 | 15.56° C | 72% | 1030.2 hPa | 0 mm | - | 0 W/m² | - |
| 1787908100 | 15.56° C | 72% | 1030 hPa | 0 mm | - | 0 W/m² | - |
| 1787907197 | 16.11° C | 69% | 1030 hPa | 0 mm | - | 0 W/m² | - |
| 1787906295 | 16.11° C | 67% | 1030 hPa | 0 mm | - | 0 W/m² | - |
| 1787905393 | 16.67° C | 66% | 1029.8 hPa | 0 mm | - | 3 W/m² | - |
* Rain latest hour (hover to see other rain measurements)
** Current wind speed in m/s (hover to see current wind gust speed)